Location: *
(2.5500°S, 65.9667°W)
Time: 13:41:57
(UTC+00:00)

Cosmos 2084 - Pass Details

Date: 27 May 2022
Orbit: 506 x 671 km, 62.8° (Epoch: 30 June)

Event Time Altitude Azimuth Distance (km) Brightness Sun altitude
Exits shadow 09:45:39 11° 230° (SW) 1,775 5.3 -9.2°
Maximum altitude 09:49:09 31° 293° (WNW) 940 4.1 -8.4°
Drops below altitude 10° 09:52:38 10° 356° (N) 1,737 6.1 -7.5°
Sets 09:54:56 0° 7° (N) 2,605 7.2 -7.0°
